This demonstration page uses our WeatherBlox Daily Observations layout. Learn more.

Left ArrowRight Arrow

39.92423, -83.80882

Hourly Observations for June 1, 2015

Temp ( °F °C ) Dew Point ( °F °C ) Humidity (%) Winds ( mph kmh ) Pressure ( in mb ) Visibility ( mi km ) Precip ( " mm )
12:19 am 00:19 Cloudy with Mist and Fog 52 11 52 11 100 100 NNE 10 17 30.18 1022 5 8.0467 0 0
12:31 am 00:31 Cloudy 52 11 50 10 94 94 NNE 8 13 30.21 1023 9 14.48406 0 0
12:56 am 00:56 Cloudy 51 10.5 49 9.4 93 93 NNE 12 19 30.15 1021 7 11.26538 0 0
1:38 am 01:38 Cloudy 52 11 48 9 88 88 NNE 9 15 30.18 1022 9 14.48406 0 0
1:56 am 01:56 Cloudy 51 10.5 48 8.8 89 89 NE 12 19 30.15 1021 9 14.48406 0 0
2:35 am 02:35 Cloudy 52 11 48 9 88 88 NNE 12 19 30.18 1022 10 16.0934 0 0
2:56 am 02:56 Cloudy 51 10.5 48 8.8 89 89 NE 10 17 30.13 1020 10 16.0934 0 0
3:56 am 03:56 Cloudy 51 10.5 48 8.8 89 89 NE 10 17 30.14 1021 10 16.0934 0 0
4:56 am 04:56 Cloudy 51 10.5 48 8.8 89 89 NNE 10 17 30.14 1021 10 16.0934 0 0
5:05 am 05:05 Cloudy 50 10 48 9 94 94 N 9 15 30.18 1022 9 14.48406 0 0
5:56 am 05:56 Cloudy 49 9.4 48 8.8 96 96 NNE 7 11 30.15 1021 10 16.0934 0 0
6:56 am 06:56 Cloudy 49 9.4 48 8.8 96 96 NE 9 15 30.16 1022 9 14.48406 0 0
7:56 am 07:56 Cloudy 50 10 48 8.8 92 92 NE 12 19 30.16 1022 9 14.48406 0 0
8:24 am 08:24 Cloudy 50 10 46 8 88 88 NE 10 17 30.21 1023 9 14.48406 0 0
8:56 am 08:56 Cloudy 50 10 47 8.3 89 89 NE 10 17 30.18 1022 10 16.0934 0 0
9:47 am 09:47 Cloudy 50 10 48 9 94 94 NE 9 15 30.21 1023 8 12.87472 0 0
1:06 pm 13:06 Cloudy 55 13 50 10 82 82 NNE 13 20 30.18 1022 9 14.48406 0 0
1:14 pm 13:14 Cloudy 54 12 52 11 94 94 NNE 8 13 30.18 1022 8 12.87472 0 0
1:56 pm 13:56 Cloudy with Light Rain 55 12.7 52 11.1 90 90 NE 12 19 30.18 1022 6 9.65604 0 0.0254
2:56 pm 14:56 Cloudy with Light Rain 55 12.7 53 11.6 93 93 NNE 12 19 30.17 1022 5 8.0467 0.01 0.254
3:25 pm 15:25 Cloudy with Mist and Fog 55 13 54 12 94 94 NNE 10 17 30.15 1021 6 9.65604 0 0.0254
3:33 pm 15:33 Cloudy with Mist and Fog 55 13 54 12 94 94 NNE 14 22 30.15 1021 6 9.65604 0.01 0.254
3:56 pm 15:56 Cloudy 55 12.7 53 11.6 93 93 N 12 19 30.16 1021 7 11.26538 0.01 0.254
4:56 pm 16:56 Cloudy 55 12.7 52 11.1 90 90 NNE 14 22 30.14 1021 9 14.48406 0 0
5:31 pm 17:31 Cloudy 55 13 52 11 88 88 NE 12 19 30.15 1021 9 14.48406 0 0
5:56 pm 17:56 Cloudy 56 13.3 52 11.1 87 87 NE 10 17 30.14 1021 9 14.48406 0 0
6:56 pm 18:56 Cloudy 55 12.7 51 10.5 87 87 NNE 12 19 30.15 1021 9 14.48406 0 0
7:56 pm 19:56 Cloudy 55 12.7 53 11.6 93 93 N 13 20 30.09 1019 7 11.26538 0 0
8:56 pm 20:56 Cloudy 53 11.6 50 10 90 90 NE 6 9 30.18 1022 8 12.87472 0 0
9:34 pm 21:34 Cloudy 52 11 50 10 94 94 NE 6 9 30.21 1023 10 16.0934 0 0
9:44 pm 21:44 Mostly Cloudy 52 11 50 10 94 94 NE 8 13 30.21 1023 10 16.0934 0 0
9:56 pm 21:56 Mostly Cloudy 51 10.5 50 10 97 97 NE 10 17 30.17 1022 10 16.0934 0 0
10:13 pm 22:13 Partly Cloudy 52 11 48 9 88 88 NE 10 17 30.21 1023 10 16.0934 0 0
10:56 pm 22:56 Clear 52 11.1 49 9.4 89 89 NE 9 15 30.18 1022 10 16.0934 0 0
11:56 pm 23:56 Clear 50 10 48 8.8 92 92 NE 8 13 30.18 1022 10 16.0934 0 0

Powered by AerisWeather